Location: Rodson Ranch
(38.7188°N, 119.3202°W)
Time: 16:56:22
(UTC+00:00)

CZ-2C R/B - Pass Details

Date: 29 October 2020
Orbit: 667 x 785 km, 98.2° (Epoch: 23 November)

Event Time Altitude Azimuth Distance (km) Brightness Sun altitude
Rises 13:10:18 0° 355° (N) 3,189 5.6 -14.4°
Reaches altitude 10° 13:13:21 10° 335° (NNW) 2,237 4.6 -13.9°
Enters shadow 13:16:07 17° 301° (WNW) 1,792 3.9 -13.3°
